Location: Mahannah Oil Field
(37.4664°N, 96.6003°W)
Time: 01:23:50
(UTC+00:00)

A-11 Canister half - Pass Details

Date: 28 January 2021
Orbit: 1524 x 1684 km, 47.3° (Epoch: 25 February)

Event Time Altitude Azimuth Distance (km) Brightness Sun altitude
Rises 20:54:06 0° 257° (WSW) 4,667 12.2 26.2°
Reaches altitude 10° 20:57:12 10° 262° (W) 3,690 11.8 25.8°
Maximum altitude 21:06:21 58° 340° (NNW) 1,754 9.5 24.7°
Drops below altitude 10° 21:15:45 10° 59° (ENE) 3,779 10.6 23.5°
Sets 21:18:58 0° 64° (ENE) 4,786 11.1 23.1°
